RH
50 52 52 51 52 50 54 58 56 52 51 52 46 41 39 36 35 33 31 29 30 29 30 31 33 35 38 39 40 45 43 38 36 42 48 45 46 57 70 76 78 76 82 73
53 51 45 48 51 55 57 59 52 50 50 50 45 37 35 32 30 29 28 26 25 25 28 29 30 32 34 37 37 43 44 41 40 40 43 42 46 58 72 78 79 78 78 80
50 44 44 49 53 56 57 59 59 56 51 48 47 35 27 26 26 27 27 26 24 23 24 25 28 31 31 35 36 42 46 44 42 43 45 49 51 62 73 80 78 80 75 70
54 48 51 55 58 57 61 56 58 62 67 65 58 48 30 29 28 27 28 27 25 23 23 22 24 29 32 32 35 40 46 46 44 46 49 49 51 56 63 69 71 71 67 62
53 56 60 62 60 64 64 64 68 71 77 75 68 74 35 36 35 33 29 28 26 23 22 21 23 26 31 35 37 42 45 48 45 46 51 54 58 60 67 66 67 69 60 57
59 59 61 61 62 67 68 73 76 80 85 84 63 77 39 38 34 33 33 31 28 24 22 23 24 28 31 38 41 45 46 49 49 48 50 54 60 60 63 64 64 64 56 54
65 63 64 66 64 63 66 74 76 80 82 72 60 79 44 37 38 36 34 33 31 27 25 23 28 31 32 37 41 46 48 52 54 52 54 55 62 60 66 66 60 59 58 49
72 66 61 56 55 59 62 69 71 75 70 63 64 67 40 35 35 34 32 34 33 31 27 28 27 31 34 36 39 47 51 56 58 56 56 59 61 69 68 66 62 55 50 50
75 65 53 51 55 60 73 77 69 81 72 83 63 48 41 32 35 34 36 36 37 33 28 28 28 34 35 38 40 50 54 57 60 61 59 62 68 71 70 61 54 49 49 52
68 62 49 51 60 64 74 76 87 91 91 83 67 64 45 36 38 30 35 39 39 37 31 28 32 36 36 40 43 52 58 59 65 69 66 70 72 69 61 55 48 48 51 56
56 58 54 61 67 68 83 89 95 92 89 86 75 51 42 37 37 38 45 42 39 39 35 30 34 38 35 37 42 53 62 65 69 71 72 73 69 63 57 53 52 53 57 62
55 63 68 67 63 70 74 83 90 97 87 94 91 56 46 49 49 46 40 42 45 44 38 35 34 39 41 42 49 60 71 74 73 75 74 72 66 59 58 55 55 59 63 66
59 77 81 70 75 78 88 85 88 95 94 93 95 49 54 57 52 45 45 49 54 48 49 42 44 50 51 52 60 69 78 78 78 79 75 69 63 62 59 56 60 64 66 69
70 82 81 79 75 88 98 94 94 98 97 84 87 71 65 66 59 53 50 59 61 59 55 46 51 49 56 61 67 76 78 82 82 78 75 67 66 64 59 62 66 67 70 73
84 89 88 88 87 91 97 98 98 98 92 96 78 91 70 62 55 54 65 67 68 66 57 62 63 62 64 68 75 79 81 83 82 78 73 70 66 60 63 67 69 72 74 72
90 94 94 90 90 93 98 97 94 95 94 92 80 78 64 57 59 69 70 74 74 73 74 74 72 74 74 78 81 83 82 82 79 76 71 63 61 65 68 72 74 73 72 73
96 96 96 87 86 94 98 95 91 91 86 85 87 65 69 75 71 82 73 76 79 90 82 74 76 78 78 81 84 82 79 76 70 65 63 64 67 70 74 74 72 73 76 80
94 97 97 92 95 96 95 95 91 90 82 80 78 76 77 77 75 71 66 71 81 88 79 76 77 77 75 74 73 69 68 66 63 62 65 70 73 74 73 74 76 79 83 82
88 94 95 96 95 84 82 87 89 93 93 91 94 82 75 78 76 67 67 72 80 85 81 79 77 74 73 72 70 67 65 64 65 69 72 73 73 74 76 79 84 85 76 61
91 93 95 92 92 92 79 79 83 87 87 92 92 91 91 90 88 79 78 76 78 78 76 76 77 77 77 75 73 72 70 69 70 71 71 74 78 79 83 86 81 70 49 45
90 90 90 90 93 80 73 71 69 72 81 89 91 91 89 88 84 80 78 78 78 77 78 81 82 81 81 78 75 74 75 73 74 77 78 79 84 84 81 73 54 46 38 39
81 84 87 86 86 84 71 65 66 65 65 71 76 86 88 89 86 84 82 79 80 81 81 81 81 81 81 80 81 81 81 80 79 81 83 81 80 73 57 49 40 37 42 41
81 78 78 81 78 70 71 69 67 65 62 66 68 73 81 83 80 78 78 79 79 79 78 78 79 80 81 82 82 81 81 81 80 81 78 66 58 53 43 38 40 41 38 40
75 76 79 79 75 74 72 72 68 68 68 65 66 67 70 72 74 75 79 81 81 79 79 78 77 79 79 81 83 83 82 80 71 61 57 54 46 39 39 40 37 39 41 39
73 77 77 79 78 74 74 77 74 72 70 68 68 69 70 71 74 76 78 79 80 79 81 82 82 83 83 82 79 71 64 59 56 52 49 42 40 39 37 37 41 43 40 34
72 72 75 76 76 76 76 78 76 77 76 75 73 73 74 75 75 77 79 81 81 82 83 84 83 78 69 64 61 58 54 50 50 44 41 41 37 36 39 43 44 40 32 28